{"data":{"norad_id":48908,"epoch":"2026-09-20T11:56:16.941984Z","epoch_age_seconds":98006,"freshness":"FRESH","line1":"1 48908U 21059AF  26263.49741831  .00024990  00000+0  26160-3 0  9993","line2":"2 48908  97.6938 104.4294 0003042  18.4936 341.6432 15.64426335292170","mean_motion":15.64426335,"eccentricity":0.0003042,"inclination_deg":97.6938,"raan_deg":104.4294,"arg_perigee_deg":18.4936,"mean_anomaly_deg":341.6432,"bstar":0.0002616,"rev_number":29217,"period_min":92.046520042761,"perigee_km":372.83484519746,"apogee_km":376.94338628628,"semimajor_km":6753.0261157419,"source":"CELESTRAK","updated_at":"2026-09-21T09:00:07.903321Z"}}